Maxwell AFB, AL

2:51 PM CST on December 18, 2017 (GMT -0600)
Maxwell Air Force Base

Weather History for KMXF - December, 2013

Change the Weather History Date:

Monday, December 9, 2013

  Actual Average Record
Temperature  
Mean Temperature 60 °F -  
Max Temperature 67 °F 59 °F 74 °F (2012)
Min Temperature 53 °F 41 °F 20 °F (2010)
Degree Days  
Heating Degree Days 5    
Growing Degree Days 10 (Base 50)    
Moisture  
Dew Point 57 °F    
Average Humidity 97    
Maximum Humidity 100    
Minimum Humidity 88    
Precipitation  
Precipitation 0.28 in - - ()
Sea Level Pressure  
Sea Level Pressure 30.08 in    
Wind  
Wind Speed 5 mph (West)    
Max Wind Speed 10 mph    
Max Gust Speed -    
Visibility 6 miles    
Events Rain    
Averages and records for this station are not official NWS values.
T = Trace of Precipitation, MM = Missing Value Source: NWS Daily Summary

Daily Weather History Graph

Daily Weather History Graph

Search for Another Location

Airport or City:

Trip Planner

Search our weather history database for the weather conditions in past years. The results will help you decide how hot, cold, wet, or windy it might be!

Date:

Astronomy

Dec. 09, 2013 Rise Set
Actual Time 6:35 AM CST 4:40 PM CST
Civil Twilight 6:08 AM CST 5:07 PM CST
Nautical Twilight 5:37 AM CST 5:37 PM CST
Astronomical Twilight 5:08 AM CST 6:07 PM CST
Moon 11:48 AM CST (12/9) No Moon Set
Length of Visible Light 10h 58m
Length of Day
10h 04m
Waxing Crescent, 51% of the Moon is Illuminated
Dec 9
Waxing Crescent
Dec 17
Full
Dec 25
Last Quarter
Jan 1
New
Jan 7
First Quarter

Hourly Weather History & Observations

Time (CST) Temp. Dew Point Humidity Pressure Visibility Wind Dir Wind Speed Gust Speed Precip Events Conditions
12:13 AM 64.4 °F 64.4 °F 100% 30.06 in 8.0 mi SE 5.8 mph - N/A   Overcast
12:58 AM 64.4 °F 64.4 °F 100% 30.07 in 6.0 mi SE 5.8 mph - N/A   Overcast
1:03 AM 64.4 °F 64.4 °F 100% 30.05 in 6.0 mi SE 5.8 mph - N/A   Overcast
1:37 AM 64.4 °F 64.4 °F 100% 30.06 in 7.0 mi SE 4.6 mph - N/A   Light Drizzle
1:50 AM 64.4 °F 64.4 °F 100% 30.05 in 7.0 mi SE 3.5 mph - N/A   Overcast
1:58 AM 64.4 °F 64.0 °F 99% 30.06 in 7.0 mi ESE 2.3 mph - 0.00 in   Overcast
2:43 AM 64.4 °F 64.4 °F 100% 30.04 in 8.0 mi SSE 2.3 mph - N/A   Mostly Cloudy
2:53 AM 64.4 °F 64.4 °F 100% 30.04 in 7.0 mi SSE 4.6 mph - N/A   Overcast
2:58 AM 64.0 °F 63.9 °F 99% 30.05 in 7.0 mi SE 4.6 mph - N/A   Overcast
3:27 AM 64.4 °F 64.4 °F 100% 30.04 in 7.0 mi SSE 2.3 mph - N/A   Light Drizzle
3:55 AM 66.2 °F 66.2 °F 100% 30.03 in 10.0 mi South 6.9 mph - N/A   Mostly Cloudy
3:58 AM 66.2 °F 66.2 °F 100% 30.04 in 10.0 mi South 6.9 mph - 0.00 in   Mostly Cloudy
4:03 AM 66.2 °F 66.2 °F 100% 30.03 in 10.0 mi South 10.4 mph - N/A   Mostly Cloudy
4:58 AM 67.3 °F 65.5 °F 94% 30.04 in 10.0 mi West 8.1 mph - N/A   Mostly Cloudy
5:06 AM 66.2 °F 64.4 °F 94% 30.04 in 9.0 mi WNW 8.1 mph - N/A Rain Light Rain
5:31 AM 62.6 °F 62.6 °F 100% 30.05 in 7.0 mi West 8.1 mph - N/A Rain Light Rain
5:36 AM 62.6 °F 62.6 °F 100% 30.05 in 6.0 mi WSW 6.9 mph - N/A Rain Light Rain
5:41 AM 62.6 °F 62.6 °F 100% 30.06 in 7.0 mi WSW 5.8 mph - N/A Rain Rain
5:56 AM 62.6 °F 60.8 °F 94% 30.06 in 5.0 mi West 4.6 mph - N/A Rain Light Rain
5:58 AM 62.6 °F 60.8 °F 94% 30.07 in 5.0 mi West 4.6 mph - 0.07 in Rain Light Rain
6:03 AM 62.6 °F 60.8 °F 94% 30.06 in 10.0 mi WSW 4.6 mph - N/A   Overcast
6:06 AM 60.8 °F 60.8 °F 100% 30.06 in 8.0 mi WSW 3.5 mph - N/A Rain Light Rain
6:11 AM 60.8 °F 60.8 °F 100% 30.07 in 6.0 mi SW 4.6 mph - N/A Rain Light Rain
6:21 AM 60.8 °F 60.8 °F 100% 30.07 in 4.0 mi WSW 5.8 mph - N/A Rain Rain
6:51 AM 59.0 °F 59.0 °F 100% 30.09 in 3.0 mi WNW 4.6 mph - N/A Rain Rain
6:56 AM 59.0 °F 59.0 °F 100% 30.08 in 2.0 mi NW 4.6 mph - N/A Rain Light Rain
6:58 AM 59.0 °F 59.0 °F 100% 30.09 in 2.0 mi NW 4.6 mph - 0.07 in Rain Light Rain
7:03 AM 59.0 °F 59.0 °F 100% 30.09 in 2.0 mi WNW 4.6 mph - N/A Rain Light Rain
7:28 AM 59.0 °F 59.0 °F 100% 30.10 in 2.5 mi WNW 2.3 mph - N/A Rain Light Rain
7:33 AM 59.0 °F 59.0 °F 100% 30.10 in 3.0 mi WNW 2.3 mph - N/A   Drizzle
7:53 AM 59.0 °F 59.0 °F 100% 30.11 in 6.0 mi Variable 3.5 mph - N/A   Light Drizzle
7:58 AM 59.2 °F 59.0 °F 99% 30.13 in 7.0 mi Variable 3.5 mph - 0.07 in   Light Drizzle
8:08 AM 59.0 °F 59.0 °F 100% 30.12 in 3.0 mi West 3.5 mph - N/A   Drizzle
8:13 AM 59.0 °F 59.0 °F 100% 30.12 in 2.5 mi WNW 5.8 mph - N/A Rain Light Rain
8:18 AM 59.0 °F 59.0 °F 100% 30.12 in 2.5 mi West 4.6 mph - N/A Rain Light Rain
8:23 AM 59.0 °F 59.0 °F 100% 30.12 in 3.0 mi WNW 4.6 mph - N/A Rain Light Rain
8:28 AM 59.0 °F 59.0 °F 100% 30.12 in 6.0 mi WNW 5.8 mph - N/A   Light Drizzle
8:36 AM 59.0 °F 59.0 °F 100% 30.13 in 9.0 mi WNW 4.6 mph - N/A   Overcast
8:46 AM 59.0 °F 57.2 °F 94% 30.14 in 10.0 mi WNW 8.1 mph - N/A   Overcast
8:54 AM 57.2 °F 57.2 °F 100% 30.14 in 9.0 mi WNW 4.6 mph - N/A Rain Light Rain
8:58 AM 57.9 °F 57.2 °F 97% 30.15 in 7.0 mi WNW 5.8 mph - 0.02 in Rain Light Rain
9:13 AM 57.2 °F 57.2 °F 100% 30.14 in 8.0 mi WNW 4.6 mph - N/A Rain Light Rain
9:38 AM 57.2 °F 55.4 °F 94% 30.15 in 10.0 mi WNW 3.5 mph - N/A   Overcast
9:41 AM 57.2 °F 55.4 °F 94% 30.15 in 10.0 mi WNW 4.6 mph - N/A   Light Drizzle
9:58 AM 57.4 °F 56.1 °F 96% 30.15 in 8.0 mi WNW 6.9 mph - 0.03 in   Light Drizzle
10:23 AM 57.2 °F 57.2 °F 100% 30.15 in 10.0 mi West 3.5 mph - N/A   Light Drizzle
10:33 AM 57.2 °F 55.4 °F 94% 30.14 in 5.0 mi West 3.5 mph - N/A Rain Light Rain
10:38 AM 57.2 °F 55.4 °F 94% 30.14 in 4.0 mi West 4.6 mph - N/A Rain Light Rain
10:43 AM 57.2 °F 57.2 °F 100% 30.14 in 4.0 mi WNW 3.5 mph - N/A Rain Light Rain
10:48 AM 57.2 °F 57.2 °F 100% 30.14 in 5.0 mi WNW 4.6 mph - N/A Rain Light Rain
10:55 AM 57.2 °F 55.4 °F 94% 30.14 in 10.0 mi WNW 4.6 mph - N/A   Overcast
10:58 AM 57.2 °F 55.4 °F 94% 30.15 in 10.0 mi West 4.6 mph - 0.02 in   Overcast
11:06 AM 57.2 °F 55.4 °F 94% 30.14 in 10.0 mi WNW 5.8 mph - N/A   Light Drizzle
11:16 AM 57.2 °F 55.4 °F 94% 30.13 in 5.0 mi WNW 6.9 mph - N/A   Light Drizzle
11:29 AM 57.2 °F 57.2 °F 100% 30.13 in 9.0 mi WNW 6.9 mph - N/A   Overcast
11:49 AM 57.2 °F 55.4 °F 94% 30.12 in 10.0 mi NW 5.8 mph - N/A   Overcast
11:58 AM 57.0 °F 56.1 °F 97% 30.13 in 10.0 mi NW 6.9 mph - 0.00 in   Overcast
12:13 PM 57.2 °F 55.4 °F 94% 30.11 in 10.0 mi WNW 5.8 mph - N/A   Overcast
12:24 PM 57.2 °F 55.4 °F 94% 30.11 in 8.0 mi WNW 4.6 mph - N/A   Light Drizzle
12:38 PM 57.2 °F 55.4 °F 94% 30.11 in 9.0 mi West 3.5 mph - N/A   Overcast
12:58 PM 56.7 °F 54.9 °F 94% 30.11 in 10.0 mi NNW 3.5 mph - 0.00 in   Overcast
1:58 PM 57.6 °F 55.2 °F 92% 30.09 in 10.0 mi Calm Calm - N/A   Overcast
2:08 PM 57.2 °F 55.4 °F 94% 30.09 in 10.0 mi NW 2.3 mph - N/A   Overcast
2:13 PM 57.2 °F 55.4 °F 94% 30.09 in 10.0 mi NNW 2.3 mph - N/A   Overcast
2:28 PM 57.2 °F 55.4 °F 94% 30.09 in 10.0 mi WNW 3.5 mph - N/A   Overcast
2:33 PM 57.2 °F 55.4 °F 94% 30.08 in 10.0 mi NNW 2.3 mph - N/A   Overcast
2:58 PM 57.6 °F 54.9 °F 91% 30.09 in 10.0 mi North 5.8 mph - N/A   Overcast
3:13 PM 57.2 °F 55.4 °F 94% 30.09 in 10.0 mi NW 5.8 mph - N/A   Overcast
3:18 PM 57.2 °F 55.4 °F 94% 30.09 in 10.0 mi NNW 5.8 mph - N/A   Overcast
3:23 PM 57.2 °F 55.4 °F 94% 30.09 in 10.0 mi NNW 5.8 mph - N/A   Overcast
3:58 PM 57.0 °F 55.0 °F 93% 30.11 in 10.0 mi NW 4.6 mph - N/A   Overcast
4:58 PM 55.4 °F 53.6 °F 94% 30.11 in 10.0 mi North 5.8 mph - N/A   Overcast
5:23 PM 55.4 °F 53.6 °F 94% 30.11 in 10.0 mi NNW 4.6 mph - N/A   Overcast
5:58 PM 55.4 °F 52.9 °F 91% 30.12 in 10.0 mi NE 3.5 mph - N/A   Overcast
6:03 PM 55.4 °F 51.8 °F 88% 30.10 in 10.0 mi Variable 4.6 mph - N/A   Overcast
6:21 PM 55.4 °F 51.8 °F 88% 30.10 in 10.0 mi North 2.3 mph - N/A   Overcast
6:58 PM 55.4 °F 51.8 °F 88% 30.10 in 10.0 mi Calm Calm - N/A   Overcast
7:10 PM 55.4 °F 51.8 °F 88% 30.09 in 10.0 mi North 2.3 mph - N/A   Overcast
7:36 PM 55.4 °F 51.8 °F 88% 30.08 in 10.0 mi North 2.3 mph - N/A   Overcast
7:58 PM 54.9 °F 52.3 °F 91% 30.09 in 10.0 mi North 2.3 mph - N/A   Overcast
8:13 PM 55.4 °F 51.8 °F 88% 30.08 in 9.0 mi East 2.3 mph - N/A   Overcast
8:33 PM 53.6 °F 53.6 °F 100% 30.07 in 9.0 mi SE 2.3 mph - N/A   Overcast
8:58 PM 54.3 °F 53.2 °F 96% 30.08 in 6.0 mi Calm Calm - N/A   Overcast
9:13 PM 53.6 °F 53.6 °F 100% 30.06 in 3.0 mi SSW 2.3 mph - N/A   Overcast
9:18 PM 53.6 °F 53.6 °F 100% 30.06 in 2.5 mi Calm Calm - N/A   Overcast
9:23 PM 53.6 °F 53.6 °F 100% 30.06 in 3.0 mi WSW 2.3 mph - N/A   Overcast
9:28 PM 53.6 °F 53.6 °F 100% 30.06 in 2.5 mi WSW 2.3 mph - N/A   Overcast
9:33 PM 53.6 °F 53.6 °F 100% 30.06 in 2.0 mi West 1.2 mph - N/A   Overcast
9:38 PM 53.6 °F 53.6 °F 100% 30.06 in 1.5 mi West 2.3 mph - N/A   Overcast
9:58 PM 54.3 °F 53.8 °F 98% 30.07 in 1.5 mi WSW 2.3 mph - N/A   Overcast
10:08 PM 53.6 °F 53.6 °F 100% 30.06 in 1.2 mi SW 3.5 mph - N/A   Overcast
10:13 PM 53.6 °F 53.6 °F 100% 30.06 in 1.2 mi SW 3.5 mph - N/A   Overcast
10:18 PM 55.4 °F 53.6 °F 94% 30.05 in 1.0 mi SSW 2.3 mph - N/A   Mist
10:28 PM 55.4 °F 53.6 °F 94% 30.06 in 0.8 mi WSW 3.5 mph - N/A   Mist
10:43 PM 55.4 °F 53.6 °F 94% 30.04 in 0.8 mi SSW 1.2 mph - N/A   Mist
10:58 PM 54.7 °F 54.3 °F 99% 30.05 in 0.8 mi WSW 2.3 mph - N/A   Mist
11:08 PM 55.4 °F 53.6 °F 94% 30.04 in 0.8 mi WSW 3.5 mph - N/A   Mist
11:13 PM 55.4 °F 53.6 °F 94% 30.04 in 1.0 mi WSW 2.3 mph - N/A   Mist
11:18 PM 55.4 °F 53.6 °F 94% 30.03 in 1.0 mi SSW 2.3 mph - N/A   Mist
11:23 PM 55.4 °F 55.4 °F 100% 30.03 in 1.2 mi WSW 2.3 mph - N/A   Overcast
11:28 PM 55.4 °F 55.4 °F 100% 30.03 in 1.8 mi WSW 3.5 mph - N/A   Overcast
11:33 PM 55.4 °F 55.4 °F 100% 30.03 in 2.0 mi WSW 3.5 mph - N/A   Overcast
11:38 PM 55.4 °F 55.4 °F 100% 30.03 in 2.5 mi SW 2.3 mph - N/A   Overcast
11:48 PM 55.4 °F 55.4 °F 100% 30.03 in 2.5 mi West 2.3 mph - N/A   Overcast
11:53 PM 55.4 °F 55.4 °F 100% 30.03 in 2.0 mi West 2.3 mph - N/A   Overcast
11:58 PM 54.9 °F 54.5 °F 99% 30.04 in 1.8 mi Variable 1.2 mph - N/A   Overcast